| time (UTC) | temp F | wind direction | speed MPH | gust MPH | rain 1hr in | rain 24hr in | rain mn in | humidity % | barometer mb |
| 20260507060203 | 32 | 191 | 0.0 | 0.0 | 0.00 | 0.00 | 0.00 | 77 | 1052.5 |
| 20260507055700 | 32 | 191 | 0.0 | 0.0 | 0.00 | 0.00 | 0.00 | 77 | 1052.4 |
| 20260507055155 | 32 | 191 | 0.0 | 0.0 | 0.00 | 0.00 | 0.00 | 77 | 1052.5 |
| 20260507054652 | 32 | 191 | 0.0 | 0.0 | 0.00 | 0.00 | 0.00 | 77 | 1052.5 |
| 20260507054148 | 32 | 191 | 0.0 | 0.0 | 0.00 | 0.00 | 0.00 | 77 | 1052.5 |
| 20260507053647 | 0 | 0.0 | 0.0 | 0.00 | 0.00 | 0.00 | 1052.7 | ||
| 20260507053144 | 0 | 0.0 | 0.0 | 0.00 | 0.00 | 0.00 | 1052.5 | ||
| 20260507052643 | 0 | 0.0 | 0.0 | 0.00 | 0.00 | 0.00 | 1052.5 | ||
| 20260507052138 | 0 | 0.0 | 0.0 | 0.00 | 0.00 | 0.00 | 1052.8 | ||
| 20260507051636 | 0 | 0.0 | 0.0 | 0.00 | 0.00 | 0.00 | 1052.7 | ||
| 20260507051132 | 0 | 0.0 | 0.0 | 0.00 | 0.00 | 0.00 | 1052.6 | ||
| 20260507050629 | 0 | 0.0 | 0.0 | 0.00 | 0.00 | 0.00 | 1052.7 | ||
| 20260507050126 | 0 | 0.0 | 0.0 | 0.00 | 0.00 | 0.00 | 1052.6 | ||
| 20260507045623 | 0 | 0.0 | 0.0 | 0.00 | 0.00 | 0.00 | 1052.7 | ||
| 20260507045119 | 0 | 0.0 | 0.0 | 0.00 | 0.00 | 0.00 | 1052.5 | ||
| 20260507044616 | 0 | 0.0 | 0.0 | 0.00 | 0.00 | 0.00 | 1052.8 | ||
| 20260507044108 | 0 | 0.0 | 0.0 | 0.00 | 0.00 | 0.00 | 1052.7 | ||
| 20260507043603 | 0 | 0.0 | 0.0 | 0.00 | 0.00 | 0.00 | 1052.6 | ||
| 20260507043101 | 0 | 0.0 | 0.0 | 0.00 | 0.00 | 0.00 | 1052.7 | ||
| 20260507042556 | 0 | 0.0 | 0.0 | 0.00 | 0.00 | 0.00 | 1052.9 | ||
| 20260507042052 | 0 | 0.0 | 0.0 | 0.00 | 0.00 | 0.00 | 1052.9 | ||
| 20260507041549 | 0 | 0.0 | 0.0 | 0.00 | 0.00 | 0.00 | 1053.0 | ||
| 20260507041047 | 0 | 0.0 | 0.0 | 0.00 | 0.00 | 0.00 | 1053.0 | ||
| 20260507040543 | 37 | 187 | 0.0 | 0.0 | 0.00 | 0.00 | 0.00 | 62 | 1053.1 |
| 20260507040039 | 37 | 187 | 0.0 | 0.0 | 0.00 | 0.00 | 0.00 | 62 | 1053.2 |
| 20260507035535 | 37 | 187 | 0.0 | 0.0 | 0.00 | 0.00 | 0.00 | 62 | 1053.3 |
| 20260507035032 | 37 | 187 | 0.0 | 0.0 | 0.00 | 0.00 | 0.00 | 62 | 1053.4 |
| 20260507034528 | 37 | 187 | 0.0 | 0.0 | 0.00 | 0.00 | 0.00 | 62 | 1053.5 |
| 20260507034027 | 37 | 187 | 0.0 | 0.0 | 0.00 | 0.00 | 0.00 | 62 | 1053.5 |
| 20260507033524 | 37 | 187 | 0.0 | 0.0 | 0.00 | 0.00 | 0.00 | 62 | 1053.6 |
| 20260507033021 | 37 | 187 | 0.0 | 0.0 | 0.00 | 0.00 | 0.00 | 62 | 1053.5 |
| 20260507032518 | 37 | 187 | 0.0 | 0.0 | 0.00 | 0.00 | 0.00 | 62 | 1053.5 |
| 20260507032014 | 37 | 187 | 0.0 | 0.0 | 0.00 | 0.00 | 0.00 | 62 | 1053.5 |
| 20260507031511 | 37 | 187 | 0.0 | 0.0 | 0.00 | 0.00 | 0.00 | 62 | 1053.6 |
| 20260507031009 | 37 | 187 | 0.0 | 0.0 | 0.00 | 0.00 | 0.00 | 62 | 1053.4 |
| 20260507030505 | 37 | 179 | 0.0 | 0.0 | 0.00 | 0.00 | 0.00 | 62 | 1053.6 |
| 20260507030003 | 37 | 179 | 0.0 | 0.0 | 0.00 | 0.00 | 0.00 | 62 | 1053.4 |
| 20260507025459 | 37 | 179 | 0.0 | 0.0 | 0.00 | 0.00 | 0.00 | 62 | 1053.5 |
| 20260507024957 | 0 | 0.0 | 0.0 | 0.00 | 0.00 | 0.00 | 1053.6 | ||
| 20260507024454 | 0 | 0.0 | 0.0 | 0.00 | 0.00 | 0.00 | 1053.6 | ||
| 20260507023950 | 0 | 0.0 | 0.0 | 0.00 | 0.00 | 0.00 | 1053.5 | ||
| 20260507023447 | 0 | 0.0 | 0.0 | 0.00 | 0.00 | 0.00 | 1053.6 | ||
| 20260507022944 | 0 | 0.0 | 0.0 | 0.00 | 0.00 | 0.00 | 1053.5 | ||
| 20260507022441 | 0 | 0.0 | 0.0 | 0.00 | 0.00 | 0.00 | 1053.4 | ||
| 20260507021936 | 0 | 0.0 | 0.0 | 0.00 | 0.00 | 0.00 | 1053.5 | ||
| 20260507021431 | 44 | 197 | 0.0 | 0.0 | 0.00 | 0.00 | 0.00 | 49 | 1053.4 |
| 20260507020930 | 44 | 197 | 0.0 | 0.0 | 0.00 | 0.00 | 0.00 | 49 | 1053.4 |
| 20260507020426 | 44 | 197 | 0.0 | 0.0 | 0.00 | 0.00 | 0.00 | 49 | 1053.2 |
| 20260507015923 | 44 | 197 | 0.0 | 0.0 | 0.00 | 0.00 | 0.00 | 49 | 1053.3 |
| 20260507015422 | 44 | 197 | 0.0 | 0.0 | 0.00 | 0.00 | 0.00 | 49 | 1053.2 |
| 20260507014918 | 44 | 197 | 0.0 | 0.0 | 0.00 | 0.00 | 0.00 | 49 | 1053.3 |
| 20260507014414 | 44 | 197 | 0.0 | 0.0 | 0.00 | 0.00 | 0.00 | 49 | 1053.1 |
| 20260507013911 | 44 | 197 | 0.0 | 0.0 | 0.00 | 0.00 | 0.00 | 49 | 1053.1 |
| 20260507013408 | 44 | 197 | 0.0 | 0.0 | 0.00 | 0.00 | 0.00 | 49 | 1053.2 |
| 20260507012905 | 44 | 197 | 0.0 | 0.0 | 0.00 | 0.00 | 0.00 | 49 | 1053.0 |
| 20260507012401 | 44 | 197 | 0.0 | 0.0 | 0.00 | 0.00 | 0.00 | 49 | 1053.2 |
| 20260507011858 | 44 | 197 | 0.0 | 0.0 | 0.00 | 0.00 | 0.00 | 49 | 1053.1 |
| 20260507011355 | 46 | 231 | 1.0 | 1.0 | 0.00 | 0.00 | 0.00 | 47 | 1053.2 |
| 20260507010849 | 46 | 231 | 1.0 | 1.0 | 0.00 | 0.00 | 0.00 | 47 | 1053.1 |
| 20260507010345 | 46 | 231 | 1.0 | 1.0 | 0.00 | 0.00 | 0.00 | 47 | 1053.2 |
| 20260507005843 | 47 | 273 | 2.0 | 3.0 | 0.00 | 0.00 | 0.00 | 45 | 1053.0 |
| 20260507005339 | 47 | 273 | 2.0 | 3.0 | 0.00 | 0.00 | 0.00 | 45 | 1053.1 |
| 20260507004836 | 47 | 290 | 2.0 | 3.0 | 0.00 | 0.00 | 0.00 | 44 | 1053.1 |
| 20260507004334 | 48 | 206 | 2.0 | 2.0 | 0.00 | 0.00 | 0.00 | 43 | 1053.1 |
| 20260507003831 | 48 | 206 | 2.0 | 2.0 | 0.00 | 0.00 | 0.00 | 43 | 1053.2 |
| 20260507003326 | 48 | 235 | 1.0 | 2.0 | 0.00 | 0.00 | 0.00 | 44 | 1053.2 |
| 20260507002821 | 48 | 197 | 1.0 | 1.0 | 0.00 | 0.00 | 0.00 | 44 | 1053.2 |
| 20260507002317 | 48 | 277 | 5.0 | 7.0 | 0.00 | 0.00 | 0.00 | 42 | 1053.3 |
| 20260507001814 | 48 | 323 | 3.0 | 3.0 | 0.00 | 0.00 | 0.00 | 42 | 1053.1 |
| 20260507001311 | 48 | 2 | 3.0 | 4.0 | 0.00 | 0.00 | 0.00 | 42 | 1053.1 |
| 20260507000808 | 49 | 194 | 2.0 | 3.0 | 0.00 | 0.00 | 0.00 | 43 | 1053.3 |
| 20260507000259 | 49 | 356 | 4.0 | 4.0 | 0.00 | 0.00 | 0.00 | 42 | 1053.2 |
| 20260506235755 | 49 | 45 | 2.0 | 2.0 | 0.00 | 0.00 | 0.00 | 42 | 1053.2 |
| 20260506235250 | 49 | 305 | 2.0 | 2.0 | 0.00 | 0.00 | 0.00 | 42 | 1053.3 |
| 20260506234747 | 49 | 238 | 1.0 | 3.0 | 0.00 | 0.00 | 0.00 | 43 | 1053.3 |
| 20260506234244 | 49 | 258 | 1.0 | 3.0 | 0.00 | 0.00 | 0.00 | 42 | 1053.4 |
| 20260506233742 | 49 | 260 | 4.0 | 7.0 | 0.00 | 0.00 | 0.00 | 42 | 1053.3 |
| 20260506233238 | 49 | 292 | 3.0 | 4.0 | 0.00 | 0.00 | 0.00 | 42 | 1053.4 |
| 20260506232735 | 48 | 340 | 3.0 | 4.0 | 0.00 | 0.00 | 0.00 | 43 | 1053.5 |
| 20260506232229 | 50 | 321 | 1.0 | 3.0 | 0.00 | 0.00 | 0.00 | 42 | 1053.5 |
| 20260506231727 | 50 | 285 | 4.0 | 6.0 | 0.00 | 0.00 | 0.00 | 41 | 1053.4 |
| 20260506231225 | 50 | 356 | 6.0 | 7.0 | 0.00 | 0.00 | 0.00 | 42 | 1053.3 |
| 20260506230722 | 48 | 347 | 2.0 | 3.0 | 0.00 | 0.00 | 0.00 | 43 | 1053.5 |
| 20260506230219 | 49 | 331 | 3.0 | 3.0 | 0.00 | 0.00 | 0.00 | 42 | 1053.4 |
| 20260506225715 | 50 | 292 | 3.0 | 7.0 | 0.00 | 0.00 | 0.00 | 41 | 1053.4 |
| 20260506225212 | 51 | 294 | 2.0 | 7.0 | 0.00 | 0.00 | 0.00 | 41 | 1053.5 |
| 20260506224708 | 50 | 289 | 2.0 | 3.0 | 0.00 | 0.00 | 0.00 | 42 | 1053.3 |
| 20260506224206 | 51 | 315 | 2.0 | 4.0 | 0.00 | 0.00 | 0.00 | 41 | 1053.5 |
| 20260506223702 | 50 | 1 | 1.0 | 4.0 | 0.00 | 0.00 | 0.00 | 42 | 1053.4 |
| 20260506223158 | 50 | 171 | 1.0 | 4.0 | 0.00 | 0.00 | 0.00 | 42 | 1053.2 |
| 20260506222655 | 51 | 308 | 3.0 | 7.0 | 0.00 | 0.00 | 0.00 | 41 | 1053.3 |
| 20260506222150 | 51 | 212 | 2.0 | 3.0 | 0.00 | 0.00 | 0.00 | 41 | 1053.4 |
| 20260506221649 | 50 | 26 | 4.0 | 7.0 | 0.00 | 0.00 | 0.00 | 40 | 1053.4 |
| 20260506221147 | 50 | 277 | 5.0 | 7.0 | 0.00 | 0.00 | 0.00 | 42 | 1053.4 |
| 20260506220643 | 50 | 294 | 4.0 | 8.0 | 0.00 | 0.00 | 0.00 | 40 | 1053.4 |
| 20260506220138 | 50 | 252 | 2.0 | 6.0 | 0.00 | 0.00 | 0.00 | 42 | 1053.6 |
| 20260506215635 | 50 | 273 | 3.0 | 4.0 | 0.00 | 0.00 | 0.00 | 42 | 1053.7 |
| 20260506215130 | 51 | 310 | 3.0 | 4.0 | 0.00 | 0.00 | 0.00 | 41 | 1053.7 |
| 20260506214627 | 50 | 261 | 6.0 | 8.0 | 0.00 | 0.00 | 0.00 | 42 | 1053.6 |
| 20260506214125 | 49 | 314 | 7.0 | 8.0 | 0.00 | 0.00 | 0.00 | 41 | 1053.7 |
| 20260506213623 | 49 | 297 | 3.0 | 3.0 | 0.00 | 0.00 | 0.00 | 43 | 1053.8 |
| 20260506213120 | 50 | 82 | 4.0 | 8.0 | 0.00 | 0.00 | 0.00 | 41 | 1053.8 |
| 20260506212617 | 50 | 337 | 5.0 | 7.0 | 0.00 | 0.00 | 0.00 | 44 | 1053.8 |
| 20260506212112 | 49 | 247 | 4.0 | 8.0 | 0.00 | 0.00 | 0.00 | 42 | 1053.8 |
| 20260506211608 | 48 | 293 | 4.0 | 9.0 | 0.00 | 0.00 | 0.00 | 43 | 1053.9 |
| 20260506211105 | 49 | 146 | 3.0 | 8.0 | 0.00 | 0.00 | 0.00 | 47 | 1053.8 |
| 20260506210602 | 49 | 252 | 5.0 | 7.0 | 0.00 | 0.00 | 0.00 | 42 | 1054.1 |
| 20260506210058 | 48 | 333 | 3.0 | 4.0 | 0.00 | 0.00 | 0.00 | 44 | 1054.0 |
| 20260506205555 | 49 | 13 | 3.0 | 6.0 | 0.00 | 0.00 | 0.00 | 42 | 1054.2 |
| 20260506205045 | 47 | 289 | 5.0 | 8.0 | 0.00 | 0.00 | 0.00 | 45 | 1054.1 |
| 20260506204543 | 47 | 264 | 2.0 | 9.0 | 0.00 | 0.00 | 0.00 | 44 | 1054.2 |
| 20260506204040 | 47 | 238 | 6.0 | 8.0 | 0.00 | 0.00 | 0.00 | 45 | 1054.4 |
| 20260506203539 | 47 | 14 | 3.0 | 6.0 | 0.00 | 0.00 | 0.00 | 45 | 1054.3 |
| 20260506203034 | 47 | 14 | 6.0 | 11.0 | 0.00 | 0.00 | 0.00 | 44 | 1054.4 |
| 20260506202532 | 47 | 258 | 5.0 | 8.0 | 0.00 | 0.00 | 0.00 | 43 | 1054.5 |
| 20260506202028 | 46 | 288 | 2.0 | 7.0 | 0.00 | 0.00 | 0.00 | 47 | 1054.4 |
| 20260506201526 | 47 | 300 | 5.0 | 11.0 | 0.00 | 0.00 | 0.00 | 45 | 1054.4 |
| 20260506201022 | 46 | 286 | 2.0 | 4.0 | 0.00 | 0.00 | 0.00 | 45 | 1054.5 |
| 20260506200518 | 46 | 234 | 5.0 | 7.0 | 0.00 | 0.00 | 0.00 | 46 | 1054.6 |
| 20260506200015 | 46 | 268 | 6.0 | 13.0 | 0.00 | 0.00 | 0.00 | 45 | 1054.7 |
| 20260506195513 | 46 | 263 | 5.0 | 9.0 | 0.00 | 0.00 | 0.00 | 46 | 1054.7 |
| 20260506195008 | 46 | 287 | 3.0 | 6.0 | 0.00 | 0.00 | 0.00 | 46 | 1054.8 |
| 20260506194506 | 47 | 241 | 3.0 | 4.0 | 0.00 | 0.00 | 0.00 | 49 | 1054.7 |
| 20260506194002 | 45 | 289 | 5.0 | 7.0 | 0.00 | 0.00 | 0.00 | 46 | 1054.9 |
| 20260506193500 | 45 | 254 | 3.0 | 6.0 | 0.00 | 0.00 | 0.00 | 47 | 1054.8 |
| 20260506192955 | 46 | 227 | 2.0 | 7.0 | 0.00 | 0.00 | 0.00 | 46 | 1054.9 |
| 20260506192453 | 45 | 257 | 3.0 | 7.0 | 0.00 | 0.00 | 0.00 | 47 | 1054.9 |
| 20260506191944 | 45 | 297 | 4.0 | 9.0 | 0.00 | 0.00 | 0.00 | 45 | 1055.1 |
| 20260506191441 | 45 | 278 | 6.0 | 11.0 | 0.00 | 0.00 | 0.00 | 47 | 1054.8 |
| 20260506190937 | 46 | 6 | 1.0 | 4.0 | 0.00 | 0.00 | 0.00 | 45 | 1054.8 |
| 20260506190434 | 46 | 353 | 3.0 | 9.0 | 0.00 | 0.00 | 0.00 | 47 | 1054.9 |
| 20260506185931 | 46 | 265 | 3.0 | 4.0 | 0.00 | 0.00 | 0.00 | 46 | 1054.9 |
| 20260506185428 | 45 | 299 | 6.0 | 7.0 | 0.00 | 0.00 | 0.00 | 48 | 1054.9 |
| 20260506184925 | 44 | 307 | 5.0 | 7.0 | 0.00 | 0.00 | 0.00 | 46 | 1054.8 |
| 20260506184421 | 45 | 318 | 5.0 | 7.0 | 0.00 | 0.00 | 0.00 | 46 | 1054.8 |
| 20260506183914 | 45 | 234 | 4.0 | 6.0 | 0.00 | 0.00 | 0.00 | 46 | 1054.9 |
| 20260506183409 | 44 | 299 | 6.0 | 9.0 | 0.00 | 0.00 | 0.00 | 46 | 1054.9 |
| 20260506182906 | 44 | 51 | 3.0 | 10.0 | 0.00 | 0.00 | 0.00 | 46 | 1055.1 |
| 20260506182403 | 45 | 274 | 3.0 | 4.0 | 0.00 | 0.00 | 0.00 | 46 | 1055.1 |
| 20260506181900 | 45 | 279 | 4.0 | 7.0 | 0.00 | 0.00 | 0.00 | 45 | 1054.9 |
| 20260506181358 | 45 | 304 | 4.0 | 7.0 | 0.00 | 0.00 | 0.00 | 46 | 1055.2 |
| 20260506180855 | 44 | 221 | 5.0 | 9.0 | 0.00 | 0.00 | 0.00 | 47 | 1055.1 |
| 20260506180351 | 44 | 282 | 4.0 | 7.0 | 0.00 | 0.00 | 0.00 | 47 | 1055.1 |
| 20260506175848 | 45 | 274 | 1.0 | 4.0 | 0.00 | 0.00 | 0.00 | 46 | 1055.1 |
| 20260506175345 | 44 | 346 | 2.0 | 7.0 | 0.00 | 0.00 | 0.00 | 50 | 1055.1 |
| 20260506174842 | 44 | 284 | 2.0 | 11.0 | 0.00 | 0.00 | 0.00 | 48 | 1055.1 |
| 20260506174339 | 44 | 286 | 2.0 | 6.0 | 0.00 | 0.00 | 0.00 | 50 | 1054.8 |
| 20260506173836 | 44 | 263 | 4.0 | 7.0 | 0.00 | 0.00 | 0.00 | 48 | 1054.9 |
| 20260506173332 | 44 | 301 | 4.0 | 7.0 | 0.00 | 0.00 | 0.00 | 49 | 1054.9 |
| 20260506172825 | 45 | 278 | 5.0 | 10.0 | 0.00 | 0.00 | 0.00 | 47 | 1055.1 |
| 20260506172321 | 44 | 50 | 1.0 | 4.0 | 0.00 | 0.00 | 0.00 | 50 | 1054.9 |
| 20260506171818 | 44 | 293 | 3.0 | 4.0 | 0.00 | 0.00 | 0.00 | 48 | 1054.8 |
| 20260506171315 | 44 | 303 | 4.0 | 6.0 | 0.00 | 0.00 | 0.00 | 49 | 1055.1 |
| 20260506170813 | 44 | 327 | 6.0 | 8.0 | 0.00 | 0.00 | 0.00 | 46 | 1054.9 |
| 20260506170309 | 46 | 322 | 4.0 | 6.0 | 0.00 | 0.00 | 0.00 | 47 | 1054.7 |
| 20260506165808 | 46 | 308 | 1.0 | 6.0 | 0.00 | 0.00 | 0.00 | 47 | 1055.1 |
| 20260506165305 | 44 | 262 | 4.0 | 4.0 | 0.00 | 0.00 | 0.00 | 50 | 1055.1 |
| 20260506164756 | 43 | 266 | 4.0 | 4.0 | 0.00 | 0.00 | 0.00 | 49 | 1054.9 |
| 20260506164253 | 44 | 165 | 3.0 | 8.0 | 0.00 | 0.00 | 0.00 | 50 | 1055.1 |
| 20260506163749 | 44 | 268 | 4.0 | 6.0 | 0.00 | 0.00 | 0.00 | 48 | 1055.1 |
| 20260506163244 | 44 | 153 | 2.0 | 3.0 | 0.00 | 0.00 | 0.00 | 49 | 1054.9 |
| 20260506162740 | 43 | 243 | 3.0 | 4.0 | 0.00 | 0.00 | 0.00 | 49 | 1054.9 |
| 20260506162238 | 44 | 289 | 5.0 | 6.0 | 0.00 | 0.00 | 0.00 | 47 | 1054.9 |
| 20260506161736 | 44 | 280 | 6.0 | 9.0 | 0.00 | 0.00 | 0.00 | 48 | 1054.8 |
| 20260506161233 | 44 | 75 | 1.0 | 8.0 | 0.00 | 0.00 | 0.00 | 49 | 1054.8 |
| 20260506160730 | 43 | 282 | 1.0 | 4.0 | 0.00 | 0.00 | 0.00 | 50 | 1055.1 |
| 20260506160226 | 43 | 282 | 5.0 | 6.0 | 0.00 | 0.00 | 0.00 | 49 | 1055.1 |
| 20260506155725 | 44 | 310 | 4.0 | 6.0 | 0.00 | 0.00 | 0.00 | 48 | 1054.9 |
| 20260506155221 | 43 | 339 | 4.0 | 7.0 | 0.00 | 0.00 | 0.00 | 48 | 1054.9 |
| 20260506153324 | 44 | 265 | 5.0 | 7.0 | 0.00 | 0.00 | 0.00 | 48 | 1054.8 |
| 20260506152821 | 44 | 356 | 2.0 | 7.0 | 0.00 | 0.00 | 0.00 | 50 | 1054.7 |
| 20260506152318 | 44 | 293 | 5.0 | 7.0 | 0.00 | 0.00 | 0.00 | 49 | 1054.8 |
| 20260506151817 | 43 | 227 | 6.0 | 8.0 | 0.00 | 0.00 | 0.00 | 49 | 1054.8 |
| 20260506151313 | 43 | 288 | 5.0 | 7.0 | 0.00 | 0.00 | 0.00 | 50 | 1054.7 |
| 20260506150809 | 43 | 244 | 4.0 | 8.0 | 0.00 | 0.00 | 0.00 | 50 | 1054.7 |
| 20260506150306 | 43 | 218 | 2.0 | 7.0 | 0.00 | 0.00 | 0.00 | 50 | 1054.7 |
| 20260506145803 | 43 | 288 | 6.0 | 9.0 | 0.00 | 0.00 | 0.00 | 50 | 1054.6 |
| 20260506145300 | 44 | 230 | 0.0 | 3.0 | 0.00 | 0.00 | 0.00 | 50 | 1054.6 |
| 20260506144757 | 43 | 334 | 1.0 | 2.0 | 0.00 | 0.00 | 0.00 | 51 | 1054.7 |
| 20260506144254 | 43 | 344 | 2.0 | 3.0 | 0.00 | 0.00 | 0.00 | 51 | 1054.8 |
| 20260506143752 | 42 | 294 | 3.0 | 6.0 | 0.00 | 0.00 | 0.00 | 51 | 1054.6 |
| 20260506143249 | 42 | 283 | 3.0 | 4.0 | 0.00 | 0.00 | 0.00 | 50 | 1054.6 |
| 20260506142747 | 43 | 38 | 2.0 | 4.0 | 0.00 | 0.00 | 0.00 | 51 | 1054.6 |
| 20260506142245 | 42 | 277 | 3.0 | 4.0 | 0.00 | 0.00 | 0.00 | 51 | 1054.7 |
| 20260506141743 | 42 | 59 | 0.0 | 3.0 | 0.00 | 0.00 | 0.00 | 51 | 1054.7 |
| 20260506141241 | 44 | 218 | 1.0 | 3.0 | 0.00 | 0.00 | 0.00 | 51 | 1054.6 |
| 20260506140738 | 43 | 256 | 2.0 | 3.0 | 0.00 | 0.00 | 0.00 | 51 | 1054.7 |
| 20260506140235 | 42 | 261 | 1.0 | 3.0 | 0.00 | 0.00 | 0.00 | 54 | 1054.7 |
| 20260506135732 | 43 | 290 | 2.0 | 6.0 | 0.00 | 0.00 | 0.00 | 49 | 1054.6 |
| 20260506135228 | 42 | 301 | 2.0 | 3.0 | 0.00 | 0.00 | 0.00 | 52 | 1054.8 |
| 20260506134725 | 42 | 291 | 2.0 | 3.0 | 0.00 | 0.00 | 0.00 | 52 | 1054.8 |
| 20260506134222 | 42 | 302 | 1.0 | 3.0 | 0.00 | 0.00 | 0.00 | 53 | 1054.7 |
| 20260506133719 | 42 | 189 | 1.0 | 3.0 | 0.00 | 0.00 | 0.00 | 53 | 1054.8 |
| 20260506133215 | 41 | 204 | 2.0 | 2.0 | 0.00 | 0.00 | 0.00 | 53 | 1054.9 |
| 20260506132712 | 40 | 265 | 2.0 | 2.0 | 0.00 | 0.00 | 0.00 | 55 | 1054.8 |
| 20260506132209 | 40 | 278 | 4.0 | 4.0 | 0.00 | 0.00 | 0.00 | 58 | 1054.5 |
| 20260506131707 | 41 | 244 | 1.0 | 1.0 | 0.00 | 0.00 | 0.00 | 58 | 1054.6 |
| 20260506131203 | 40 | 80 | 1.0 | 3.0 | 0.00 | 0.00 | 0.00 | 58 | 1054.5 |
| 20260506130700 | 40 | 225 | 1.0 | 4.0 | 0.00 | 0.00 | 0.00 | 60 | 1054.2 |
| 20260506130157 | 40 | 209 | 1.0 | 2.0 | 0.00 | 0.00 | 0.00 | 58 | 1054.4 |
| 20260506125655 | 39 | 201 | 0.0 | 2.0 | 0.00 | 0.00 | 0.00 | 59 | 1054.4 |
| 20260506125153 | 39 | 239 | 1.0 | 2.0 | 0.00 | 0.00 | 0.00 | 60 | 1054.2 |
| 20260506124650 | 39 | 300 | 1.0 | 1.0 | 0.00 | 0.00 | 0.00 | 61 | 1054.4 |
| 20260506124148 | 38 | 266 | 2.0 | 3.0 | 0.00 | 0.00 | 0.00 | 62 | 1054.4 |
| 20260506123645 | 37 | 255 | 1.0 | 2.0 | 0.00 | 0.00 | 0.00 | 64 | 1054.4 |
| 20260506123144 | 37 | 260 | 2.0 | 3.0 | 0.00 | 0.00 | 0.00 | 63 | 1054.3 |
| 20260506122640 | 36 | 225 | 2.0 | 2.0 | 0.00 | 0.00 | 0.00 | 66 | 1054.2 |
| 20260506122138 | 36 | 269 | 1.0 | 2.0 | 0.00 | 0.00 | 0.00 | 67 | 1054.1 |
| 20260506121635 | 35 | 246 | 1.0 | 2.0 | 0.00 | 0.00 | 0.00 | 67 | 1053.9 |
| 20260506121132 | 35 | 234 | 1.0 | 2.0 | 0.00 | 0.00 | 0.00 | 67 | 1053.9 |
| 20260506120630 | 34 | 208 | 1.0 | 1.0 | 0.00 | 0.00 | 0.00 | 68 | 1054.0 |
| 20260506120127 | 33 | 207 | 1.0 | 2.0 | 0.00 | 0.00 | 0.00 | 69 | 1053.8 |
| 20260506115626 | 33 | 198 | 0.0 | 1.0 | 0.00 | 0.00 | 0.00 | 70 | 1053.8 |
| 20260506115123 | 33 | 194 | 0.0 | 0.0 | 0.00 | 0.00 | 0.00 | 72 | 1053.8 |
| 20260506114620 | 32 | 242 | 1.0 | 1.0 | 0.00 | 0.00 | 0.00 | 72 | 1053.7 |
| 20260506114118 | 32 | 204 | 0.0 | 1.0 | 0.00 | 0.00 | 0.00 | 72 | 1053.6 |
| 20260506113616 | 32 | 206 | 0.0 | 1.0 | 0.00 | 0.00 | 0.00 | 72 | 1053.4 |
| 20260506113113 | 31 | 243 | 1.0 | 1.0 | 0.00 | 0.00 | 0.00 | 75 | 1053.2 |
| 20260506112609 | 31 | 189 | 0.0 | 0.0 | 0.00 | 0.00 | 0.00 | 75 | 1053.2 |
| 20260506112107 | 30 | 209 | 0.0 | 0.0 | 0.00 | 0.00 | 0.00 | 75 | 1053.1 |
| 20260506111604 | 30 | 213 | 0.0 | 0.0 | 0.00 | 0.00 | 0.00 | 76 | 1053.0 |
| 20260506111102 | 30 | 191 | 0.0 | 0.0 | 0.00 | 0.00 | 0.00 | 76 | 1053.0 |
| 20260506110559 | 31 | 196 | 0.0 | 0.0 | 0.00 | 0.00 | 0.00 | 74 | 1053.1 |
| 20260506110056 | 30 | 202 | 0.0 | 0.0 | 0.00 | 0.00 | 0.00 | 76 | 1053.0 |
| 20260506105553 | 30 | 184 | 0.0 | 0.0 | 0.00 | 0.00 | 0.00 | 75 | 1053.1 |
| 20260506105050 | 30 | 197 | 0.0 | 0.0 | 0.00 | 0.00 | 0.00 | 74 | 1053.2 |
| 20260506104548 | 31 | 192 | 0.0 | 0.0 | 0.00 | 0.00 | 0.00 | 74 | 1053.2 |
| 20260506104045 | 31 | 167 | 0.0 | 0.0 | 0.00 | 0.00 | 0.00 | 74 | 1053.1 |
| 20260506103542 | 31 | 152 | 0.0 | 0.0 | 0.00 | 0.00 | 0.00 | 75 | 1052.9 |
| 20260506103039 | 31 | 167 | 0.0 | 0.0 | 0.00 | 0.00 | 0.00 | 74 | 1052.8 |
| 20260506102538 | 31 | 167 | 0.0 | 0.0 | 0.00 | 0.00 | 0.00 | 75 | 1053.0 |
| 20260506102035 | 30 | 179 | 0.0 | 0.0 | 0.00 | 0.00 | 0.00 | 77 | 1053.0 |
| 20260506101531 | 30 | 189 | 0.0 | 0.0 | 0.00 | 0.00 | 0.00 | 75 | 1052.8 |
| 20260506101028 | 31 | 171 | 0.0 | 0.0 | 0.00 | 0.00 | 0.00 | 75 | 1052.9 |
| 20260506100527 | 31 | 177 | 0.0 | 0.0 | 0.00 | 0.00 | 0.00 | 74 | 1052.8 |
| 20260506100024 | 32 | 184 | 0.0 | 0.0 | 0.00 | 0.00 | 0.00 | 72 | 1052.8 |
| 20260506095523 | 32 | 192 | 0.0 | 0.0 | 0.00 | 0.00 | 0.00 | 70 | 1053.0 |
| 20260506095018 | 33 | 199 | 0.0 | 1.0 | 0.00 | 0.00 | 0.00 | 70 | 1052.9 |
| 20260506094517 | 33 | 202 | 0.0 | 0.0 | 0.00 | 0.00 | 0.00 | 70 | 1052.8 |
| 20260506094014 | 32 | 213 | 0.0 | 0.0 | 0.00 | 0.00 | 0.00 | 71 | 1053.0 |
| 20260506093513 | 32 | 194 | 0.0 | 0.0 | 0.00 | 0.00 | 0.00 | 73 | 1052.8 |
| 20260506093010 | 31 | 187 | 0.0 | 0.0 | 0.00 | 0.00 | 0.00 | 73 | 1052.6 |
| 20260506092508 | 32 | 183 | 0.0 | 0.0 | 0.00 | 0.00 | 0.00 | 73 | 1052.6 |
| 20260506092004 | 32 | 189 | 0.0 | 0.0 | 0.00 | 0.00 | 0.00 | 72 | 1052.6 |
| 20260506091503 | 33 | 188 | 0.0 | 0.0 | 0.00 | 0.00 | 0.00 | 71 | 1052.6 |
| 20260506090959 | 34 | 190 | 0.0 | 0.0 | 0.00 | 0.00 | 0.00 | 69 | 1052.5 |
| 20260506090457 | 34 | 232 | 0.0 | 0.0 | 0.00 | 0.00 | 0.00 | 67 | 1052.4 |
| 20260506085953 | 35 | 219 | 0.0 | 0.0 | 0.00 | 0.00 | 0.00 | 67 | 1052.4 |
| 20260506085450 | 35 | 239 | 1.0 | 1.0 | 0.00 | 0.00 | 0.00 | 66 | 1052.4 |
| 20260506084946 | 35 | 212 | 0.0 | 1.0 | 0.00 | 0.00 | 0.00 | 67 | 1052.2 |
| 20260506084443 | 35 | 210 | 0.0 | 0.0 | 0.00 | 0.00 | 0.00 | 66 | 1052.4 |
| 20260506083939 | 35 | 190 | 1.0 | 1.0 | 0.00 | 0.00 | 0.00 | 66 | 1052.2 |
| 20260506083437 | 35 | 210 | 0.0 | 0.0 | 0.00 | 0.00 | 0.00 | 65 | 1052.4 |
| 20260506082934 | 35 | 215 | 0.0 | 0.0 | 0.00 | 0.00 | 0.00 | 65 | 1052.3 |
| 20260506082431 | 35 | 226 | 0.0 | 1.0 | 0.00 | 0.00 | 0.00 | 66 | 1052.0 |
| 20260506081927 | 35 | 233 | 0.0 | 2.0 | 0.00 | 0.00 | 0.00 | 65 | 1052.2 |
| 20260506081425 | 36 | 198 | 0.0 | 1.0 | 0.00 | 0.00 | 0.00 | 65 | 1052.3 |
| 20260506080922 | 36 | 196 | 0.0 | 1.0 | 0.00 | 0.00 | 0.00 | 65 | 1052.3 |
| 20260506080419 | 36 | 215 | 0.0 | 2.0 | 0.00 | 0.00 | 0.00 | 64 | 1052.3 |
| 20260506073403 | 36 | 194 | 1.0 | 1.0 | 0.00 | 0.00 | 0.00 | 63 | 1052.3 |
| 20260506072900 | 37 | 241 | 1.0 | 1.0 | 0.00 | 0.00 | 0.00 | 63 | 1052.3 |
| 20260506072357 | 37 | 219 | 1.0 | 2.0 | 0.00 | 0.00 | 0.00 | 63 | 1052.3 |
| 20260506071855 | 37 | 236 | 1.0 | 2.0 | 0.00 | 0.00 | 0.00 | 62 | 1052.2 |
| 20260506071353 | 37 | 216 | 1.0 | 1.0 | 0.00 | 0.00 | 0.00 | 62 | 1052.2 |
| 20260506070849 | 37 | 203 | 0.0 | 1.0 | 0.00 | 0.00 | 0.00 | 61 | 1052.2 |
| 20260506070346 | 38 | 281 | 1.0 | 2.0 | 0.00 | 0.00 | 0.00 | 60 | 1052.0 |
| 20260506062323 | 39 | 259 | 1.0 | 2.0 | 0.00 | 0.00 | 0.00 | 58 | 1051.4 |
| 20260506061819 | 39 | 318 | 1.0 | 2.0 | 0.00 | 0.00 | 0.00 | 58 | 1051.4 |
| 20260506061316 | 39 | 5 | 1.0 | 2.0 | 0.00 | 0.00 | 0.00 | 57 | 1051.4 |
| 20260506060815 | 39 | 302 | 2.0 | 2.0 | 0.00 | 0.00 | 0.00 | 57 | 1051.5 |